TimeCDT,TemperatureF,Dew PointF,Humidity,Sea Level PressureIn,VisibilityMPH,Wind Direction,Wind SpeedMPH,Gust SpeedMPH,PrecipitationIn,Events,Conditions,WindDirDegrees,DateUTC
12:08 AM,49.1,46.9,92,29.90,10.0,North,3.5,-,N/A,,Clear,10,2012-10-22 05:08:00
12:29 AM,49.1,46.9,92,29.90,10.0,NNW,5.8,-,N/A,,Clear,340,2012-10-22 05:29:00
12:49 AM,49.1,46.6,91,29.90,10.0,NNW,3.5,-,N/A,,Clear,340,2012-10-22 05:49:00
1:29 AM,49.1,46.4,90,29.90,10.0,NNW,9.2,-,N/A,,Clear,340,2012-10-22 06:29:00
1:49 AM,50.2,46.9,89,29.90,10.0,North,5.8,-,N/A,,Clear,350,2012-10-22 06:49:00
2:08 AM,49.6,46.4,89,29.90,10.0,North,9.2,-,N/A,,Clear,350,2012-10-22 07:08:00
2:29 AM,49.3,45.7,87,29.90,10.0,North,10.4,-,N/A,,Clear,350,2012-10-22 07:29:00
2:49 AM,49.1,45.5,87,29.90,10.0,North,8.1,-,N/A,,Clear,350,2012-10-22 07:49:00
3:09 AM,49.1,45.9,89,29.90,10.0,North,6.9,-,N/A,,Clear,350,2012-10-22 08:09:00
3:50 AM,48.2,46.4,93,29.89,10.0,North,6.9,-,N/A,,Clear,360,2012-10-22 08:50:00
4:10 AM,48.2,46.4,93,29.89,10.0,North,6.9,-,N/A,,Clear,10,2012-10-22 09:10:00
4:23 AM,49.1,45.9,89,29.89,10.0,North,8.1,-,N/A,,Clear,10,2012-10-22 09:23:00
4:48 AM,49.1,45.5,87,29.90,10.0,North,8.1,-,N/A,,Clear,10,2012-10-22 09:48:00
5:08 AM,49.1,45.0,86,29.90,10.0,NNE,11.5,-,N/A,,Clear,20,2012-10-22 10:08:00
5:29 AM,49.1,45.1,86,29.90,10.0,NNE,11.5,-,N/A,,Clear,30,2012-10-22 10:29:00
5:49 AM,49.1,45.5,87,29.91,10.0,NNE,10.4,-,N/A,,Clear,30,2012-10-22 10:49:00
6:09 AM,49.1,45.5,87,29.91,10.0,NNE,10.4,-,N/A,,Clear,30,2012-10-22 11:09:00
6:29 AM,49.1,45.5,87,29.91,10.0,NNE,10.4,18.4,N/A,,Clear,20,2012-10-22 11:29:00
6:48 AM,49.1,45.9,89,29.91,10.0,North,11.5,-,N/A,,Clear,10,2012-10-22 11:48:00
7:09 AM,49.1,45.5,87,29.91,10.0,North,13.8,20.7,N/A,,Clear,10,2012-10-22 12:09:00
7:28 AM,49.1,45.0,86,29.91,10.0,NNE,13.8,21.9,N/A,,Clear,20,2012-10-22 12:28:00
8:09 AM,49.1,45.1,86,29.94,10.0,NNE,12.7,-,N/A,,Clear,30,2012-10-22 13:09:00
8:29 AM,49.1,45.0,86,29.94,10.0,NNE,16.1,21.9,N/A,,Clear,30,2012-10-22 13:29:00
8:49 AM,49.1,44.6,84,29.94,10.0,NNE,15.0,20.7,N/A,,Clear,30,2012-10-22 13:49:00
9:09 AM,49.1,44.2,83,29.93,10.0,NNE,16.1,-,N/A,,Clear,30,2012-10-22 14:09:00
9:29 AM,51.1,45.5,81,29.93,10.0,NE,18.4,24.2,N/A,,Clear,40,2012-10-22 14:29:00
9:49 AM,51.8,45.7,80,29.94,10.0,NE,16.1,-,N/A,,Scattered Clouds,40,2012-10-22 14:49:00
10:08 AM,54.1,47.8,79,29.94,10.0,NNE,16.1,23.0,N/A,,Scattered Clouds,20,2012-10-22 15:08:00
10:28 AM,54.1,46.6,76,29.93,10.0,NE,18.4,24.2,N/A,,Clear,40,2012-10-22 15:28:00
10:48 AM,56.5,47.7,72,29.94,10.0,NNE,18.4,25.3,N/A,,Mostly Cloudy,30,2012-10-22 15:48:00
11:08 AM,56.7,47.1,70,29.93,10.0,NE,19.6,25.3,N/A,,Overcast,40,2012-10-22 16:08:00
11:29 AM,56.7,46.8,69,29.93,10.0,NNE,16.1,24.2,N/A,,Overcast,30,2012-10-22 16:29:00
11:49 AM,56.7,47.3,71,29.93,10.0,NNE,17.3,24.2,N/A,,Overcast,30,2012-10-22 16:49:00
12:09 PM,56.7,47.7,72,29.93,10.0,NNE,18.4,23.0,N/A,,Overcast,30,2012-10-22 17:09:00
12:28 PM,59.2,48.9,69,29.92,10.0,NE,18.4,25.3,N/A,,Overcast,40,2012-10-22 17:28:00
12:48 PM,59.2,48.4,67,29.92,10.0,NE,20.7,26.5,N/A,,Mostly Cloudy,50,2012-10-22 17:48:00
1:08 PM,59.2,48.2,67,29.91,10.0,NE,21.9,26.5,N/A,,Scattered Clouds,50,2012-10-22 18:08:00
1:29 PM,59.2,47.7,66,29.91,10.0,NE,21.9,27.6,N/A,,Mostly Cloudy,50,2012-10-22 18:29:00
1:49 PM,57.9,47.8,69,29.91,10.0,ENE,17.3,26.5,N/A,,Overcast,60,2012-10-22 18:49:00
2:08 PM,58.8,48.7,69,29.90,10.0,NE,16.1,24.2,N/A,,Overcast,50,2012-10-22 19:08:00
2:29 PM,59.2,48.7,68,29.90,10.0,NE,15.0,-,N/A,,Overcast,50,2012-10-22 19:29:00
2:48 PM,59.2,48.7,68,29.89,10.0,NE,15.0,21.9,N/A,,Overcast,50,2012-10-22 19:48:00
3:09 PM,60.4,49.1,66,29.88,10.0,NE,15.0,20.7,N/A,,Overcast,50,2012-10-22 20:09:00
3:28 PM,60.4,48.4,64,29.88,10.0,NE,19.6,23.0,N/A,,Mostly Cloudy,40,2012-10-22 20:28:00
3:49 PM,60.4,48.7,65,29.88,10.0,NE,15.0,25.3,N/A,,Scattered Clouds,40,2012-10-22 20:49:00
4:09 PM,59.2,48.4,67,29.88,10.0,NE,17.3,20.7,N/A,,Scattered Clouds,50,2012-10-22 21:09:00
4:29 PM,59.2,48.4,67,29.88,10.0,NE,16.1,-,N/A,,Mostly Cloudy,50,2012-10-22 21:29:00
4:49 PM,59.2,48.6,68,29.88,10.0,ENE,11.5,-,N/A,,Overcast,60,2012-10-22 21:49:00
5:09 PM,59.2,48.6,68,29.89,10.0,NE,13.8,19.6,N/A,,Overcast,50,2012-10-22 22:09:00
5:29 PM,59.2,48.9,69,29.88,10.0,NE,12.7,20.7,N/A,,Overcast,40,2012-10-22 22:29:00
5:32 PM,59.2,49.1,69,29.88,10.0,NE,11.5,20.7,N/A,,Overcast,40,2012-10-22 22:32:00
6:10 PM,57.2,48.2,72,29.88,10.0,NE,12.7,-,N/A,,Overcast,50,2012-10-22 23:10:00
6:30 PM,57.2,48.2,72,29.89,10.0,NE,10.4,-,N/A,,Overcast,50,2012-10-22 23:30:00
7:10 PM,57.2,48.2,72,29.89,10.0,NE,9.2,-,N/A,,Overcast,50,2012-10-23 00:10:00
7:30 PM,57.2,48.2,72,29.89,10.0,NE,10.4,-,N/A,,Overcast,50,2012-10-23 00:30:00
7:46 PM,56.7,48.4,74,29.89,10.0,NE,11.5,-,N/A,,Overcast,50,2012-10-23 00:46:00
7:50 PM,57.2,48.2,72,29.89,10.0,ENE,10.4,-,N/A,,Overcast,60,2012-10-23 00:50:00
8:08 PM,56.7,48.4,74,29.89,10.0,ENE,10.4,-,N/A,,Overcast,60,2012-10-23 01:08:00
8:48 PM,56.7,48.6,74,29.89,10.0,ENE,8.1,-,N/A,,Overcast,60,2012-10-23 01:48:00
9:09 PM,56.7,49.1,76,29.88,10.0,NE,9.2,-,N/A,,Overcast,50,2012-10-23 02:09:00
9:29 PM,56.7,49.1,76,29.88,10.0,ENE,6.9,-,N/A,,Overcast,60,2012-10-23 02:29:00
9:48 PM,56.7,49.3,76,29.88,10.0,NE,9.2,-,N/A,,Overcast,50,2012-10-23 02:48:00
10:09 PM,56.7,49.3,76,29.88,10.0,NE,10.4,-,N/A,,Overcast,50,2012-10-23 03:09:00
10:29 PM,55.4,48.4,77,29.86,10.0,ENE,11.5,-,N/A,,Overcast,60,2012-10-23 03:29:00
10:48 PM,56.1,49.1,77,29.86,10.0,ENE,10.4,-,N/A,,Overcast,60,2012-10-23 03:48:00
11:09 PM,56.5,50.0,79,29.85,10.0,ENE,9.2,-,N/A,,Overcast,70,2012-10-23 04:09:00
11:29 PM,56.1,50.2,80,29.85,10.0,NE,8.1,-,N/A,,Overcast,50,2012-10-23 04:29:00